,,,PA_Meas_PMT16A,,PR_Meas_QMR101_102,,RH_Meas_QMH101,,SR_Meas_QMS101,,TA_Meas_QMH101,,GenWind,,GenWind,
date,time,status,PA,status,PR,status,RH,status,SR,status,TA,status,DirAvg,status,SpdAvg,
2011-07-28, 00:00:04,VALID,1004.67,VALID,0,INVALID,163.632,VALID,0.100563,VALID,25.4909,VALID,68,VALID,0,
2011-07-28, 00:01:04,VALID,1004.71,VALID,0,INVALID,163.639,VALID,0.100563,VALID,25.4928,VALID,48,VALID,0,
2011-07-28, 00:02:04,VALID,1004.68,VALID,0,INVALID,163.609,VALID,0.100563,VALID,25.5123,VALID,37,VALID,0,
2011-07-28, 00:03:04,VALID,1004.72,VALID,0,INVALID,163.624,VALID,0.100563,VALID,25.5123,VALID,37,VALID,0,
2011-07-28, 00:04:04,VALID,1004.74,VALID,0,INVALID,163.639,VALID,0.100563,VALID,25.4714,VALID,32,VALID,0,
2011-07-28, 00:05:04,VALID,1004.69,VALID,0,INVALID,163.624,VALID,0.100563,VALID,25.4909,VALID,44,VALID,0,
2011-07-28, 00:06:04,VALID,1004.68,VALID,0,INVALID,163.632,VALID,0.100563,VALID,25.4928,VALID,44,VALID,0,
2011-07-28, 00:07:04,VALID,1004.68,VALID,0,INVALID,163.632,VALID,0.100563,VALID,25.4325,VALID,44,VALID,0,
2011-07-28, 00:08:04,VALID,1004.71,VALID,0,INVALID,163.647,VALID,0.100563,VALID,25.3935,VALID,44,VALID,0,
2011-07-28, 00:09:04,VALID,1004.66,VALID,0,INVALID,163.67,VALID,0,VALID,25.3955,VALID,44,VALID,0,
2011-07-28, 00:10:04,VALID,1004.68,VALID,0,INVALID,163.639,VALID,0.100563,VALID,25.3351,VALID,53,VALID,0,
2011-07-28, 00:11:04,VALID,1004.66,VALID,0,INVALID,163.624,VALID,0.100563,VALID,25.3157,VALID,53,VALID,0,
2011-07-28, 00:12:04,VALID,1004.62,VALID,0,INVALID,163.647,VALID,0.100563,VALID,25.3176,VALID,53,VALID,0,
2011-07-28, 00:13:04,VALID,1004.64,VALID,0,INVALID,163.639,VALID,0.100563,VALID,25.2572,VALID,53,VALID,0,
2011-07-28, 00:14:04,VALID,1004.63,VALID,0,INVALID,163.678,VALID,0.100563,VALID,25.2378,VALID,53,VALID,0,
2011-07-28, 00:15:04,VALID,1004.6,VALID,0,INVALID,163.662,VALID,0,VALID,25.2007,VALID,53,VALID,0,
2011-07-28, 00:16:04,VALID,1004.63,VALID,0,INVALID,163.655,VALID,0,VALID,25.1423,VALID,53,VALID,0,
2011-07-28, 00:17:04,VALID,1004.59,VALID,0,INVALID,163.655,VALID,0,VALID,25.1034,VALID,62,VALID,0,
2011-07-28, 00:18:04,VALID,1004.62,VALID,0,INVALID,163.662,VALID,0,VALID,25.0644,VALID,76,VALID,0,
2011-07-28, 00:19:04,VALID,1004.63,VALID,0,INVALID,163.655,VALID,0,VALID,25.0663,VALID,56,VALID,0,
2011-07-28, 00:20:04,VALID,1004.6,VALID,0,INVALID,163.678,VALID,0,VALID,25.0255,VALID,23,VALID,0,
2011-07-28, 00:21:04,VALID,1004.62,VALID,0,INVALID,163.678,VALID,0,VALID,25.0079,VALID,23,VALID,0,
2011-07-28, 00:22:04,VALID,1004.58,VALID,0,INVALID,163.678,VALID,0,VALID,24.9282,VALID,23,VALID,0,
2011-07-28, 00:23:04,VALID,1004.6,VALID,0,INVALID,163.701,VALID,0,VALID,24.9106,VALID,23,VALID,0,
2011-07-28, 00:24:04,VALID,1004.55,VALID,0,INVALID,163.67,VALID,0,VALID,24.9106,VALID,23,VALID,0,
2011-07-28, 00:25:04,VALID,1004.51,VALID,0,INVALID,163.67,VALID,0,VALID,24.8892,VALID,41,VALID,0,
2011-07-28, 00:26:04,VALID,1004.49,VALID,0,INVALID,163.678,VALID,0,VALID,24.9282,VALID,45,VALID,0,
2011-07-28, 00:27:04,VALID,1004.49,VALID,0,INVALID,163.693,VALID,0,VALID,24.9106,VALID,45,VALID,0,
2011-07-28, 00:28:04,VALID,1004.49,VALID,0,INVALID,163.678,VALID,0,VALID,24.8697,VALID,45,VALID,0,
2011-07-28, 00:29:04,VALID,1004.48,VALID,0,INVALID,163.701,VALID,0,VALID,24.8697,VALID,45,VALID,0,
2011-07-28, 00:30:04,VALID,1004.47,VALID,0,INVALID,163.678,VALID,0,VALID,24.8503,VALID,45,VALID,0,
2011-07-28, 00:31:04,VALID,1004.43,VALID,0,INVALID,163.685,VALID,0,VALID,24.8697,VALID,45,VALID,0,
2011-07-28, 00:32:04,VALID,1004.46,VALID,0,INVALID,163.693,VALID,0.100563,VALID,24.8892,VALID,50,VALID,0,
2011-07-28, 00:33:04,VALID,1004.47,VALID,0,INVALID,163.746,VALID,0,VALID,24.9263,VALID,70,VALID,0,
2011-07-28, 00:34:04,VALID,1004.49,VALID,0,INVALID,163.639,VALID,0,VALID,24.9476,VALID,64,VALID,0,
2011-07-28, 00:35:04,VALID,1004.49,VALID,0,INVALID,163.685,VALID,0,VALID,24.9476,VALID,39,VALID,0,
2011-07-28, 00:36:04,VALID,1004.48,VALID,0,INVALID,163.678,VALID,0,VALID,24.9885,VALID,34,VALID,0,
2011-07-28, 00:37:04,VALID,1004.48,VALID,0,INVALID,163.685,VALID,0,VALID,24.9885,VALID,34,VALID,0,
2011-07-28, 00:38:04,VALID,1004.46,VALID,0,INVALID,163.67,VALID,0,VALID,25.006,VALID,31,VALID,0,
2011-07-28, 00:39:04,VALID,1004.48,VALID,0,INVALID,163.701,VALID,0,VALID,25.0255,VALID,29,VALID,0,
2011-07-28, 00:40:04,VALID,1004.47,VALID,0,INVALID,163.655,VALID,0,VALID,25.045,VALID,29,VALID,0,
2011-07-28, 00:41:04,VALID,1004.43,VALID,0,INVALID,163.67,VALID,0,VALID,25.045,VALID,29,VALID,0,
2011-07-28, 00:42:04,VALID,1004.44,VALID,0,INVALID,163.67,VALID,0,VALID,25.045,VALID,29,VALID,0,
2011-07-28, 00:43:04,VALID,1004.41,VALID,0,INVALID,163.655,VALID,0,VALID,25.045,VALID,29,VALID,0,
2011-07-28, 00:44:04,VALID,1004.41,VALID,0,INVALID,163.67,VALID,0,VALID,25.045,VALID,29,VALID,0,
2011-07-28, 00:45:04,VALID,1004.41,VALID,0,INVALID,163.662,VALID,0,VALID,25.045,VALID,29,VALID,0,
2011-07-28, 00:46:04,VALID,1004.39,VALID,0,INVALID,163.662,VALID,0,VALID,25.0469,VALID,29,VALID,0,
2011-07-28, 00:47:04,VALID,1004.4,VALID,0,INVALID,163.678,VALID,0,VALID,25.045,VALID,29,VALID,0,
2011-07-28, 00:48:04,VALID,1004.38,VALID,0,INVALID,163.639,VALID,0,VALID,25.0255,VALID,29,VALID,0,
2011-07-28, 00:49:04,VALID,1004.39,VALID,0,INVALID,163.708,VALID,0,VALID,25.0274,VALID,29,VALID,0,
2011-07-28, 00:50:04,VALID,1004.39,VALID,0,INVALID,163.739,VALID,0,VALID,24.9866,VALID,29,VALID,0,
2011-07-28, 00:51:04,VALID,1004.37,VALID,0,INVALID,163.693,VALID,0,VALID,24.9457,VALID,29,VALID,0,
2011-07-28, 00:52:04,VALID,1004.32,VALID,0,INVALID,163.693,VALID,0,VALID,24.9282,VALID,29,VALID,0,
2011-07-28, 00:53:04,VALID,1004.33,VALID,0,INVALID,163.655,VALID,0,VALID,24.8892,VALID,29,VALID,0,
2011-07-28, 00:54:04,VALID,1004.27,VALID,0,INVALID,163.678,VALID,0,VALID,24.8503,VALID,29,VALID,0,
2011-07-28, 00:55:04,VALID,1004.31,VALID,0,INVALID,163.693,VALID,0,VALID,24.8308,VALID,29,VALID,0,
2011-07-28, 00:56:04,VALID,1004.27,VALID,0,INVALID,163.685,VALID,0,VALID,24.7919,VALID,29,VALID,0,
2011-07-28, 00:57:04,VALID,1004.27,VALID,0,INVALID,163.685,VALID,0,VALID,24.7937,VALID,29,VALID,0,
2011-07-28, 00:58:04,VALID,1004.28,VALID,0,INVALID,163.678,VALID,0,VALID,24.714,VALID,29,VALID,0,
2011-07-28, 00:59:04,VALID,1004.3,VALID,0,INVALID,163.716,VALID,0,VALID,24.7159,VALID,29,VALID,0,
2011-07-28, 01:00:04,VALID,1004.3,VALID,0,INVALID,163.685,VALID,0,VALID,24.675,VALID,29,VALID,0,
2011-07-28, 01:01:04,VALID,1004.27,VALID,0,INVALID,163.723,VALID,0,VALID,24.675,VALID,29,VALID,0,
2011-07-28, 01:02:04,VALID,1004.3,VALID,0,INVALID,163.739,VALID,0,VALID,24.6574,VALID,29,VALID,0,
2011-07-28, 01:03:04,VALID,1004.25,VALID,0,INVALID,163.701,VALID,0,VALID,24.6574,VALID,29,VALID,0,
2011-07-28, 01:04:04,VALID,1004.22,VALID,0,INVALID,163.716,VALID,0,VALID,24.6166,VALID,29,VALID,0,
2011-07-28, 01:05:04,VALID,1004.25,VALID,0,INVALID,163.754,VALID,0,VALID,24.6166,VALID,29,VALID,0,
2011-07-28, 01:06:04,VALID,1004.2,VALID,0,INVALID,163.693,VALID,0,VALID,24.6185,VALID,29,VALID,0,
2011-07-28, 01:07:04,VALID,1004.18,VALID,0,INVALID,163.723,VALID,0,VALID,24.5777,VALID,29,VALID,0,
2011-07-28, 01:08:04,VALID,1004.15,VALID,0,INVALID,163.769,VALID,0,VALID,24.5582,VALID,29,VALID,0,
2011-07-28, 01:09:04,VALID,1004.11,VALID,0,INVALID,163.716,VALID,0,VALID,24.5388,VALID,29,VALID,0,
2011-07-28, 01:10:04,VALID,1004.12,VALID,0,INVALID,163.701,VALID,0,VALID,24.5388,VALID,29,VALID,0,
2011-07-28, 01:11:04,VALID,1004.08,VALID,0,INVALID,163.754,VALID,0,VALID,24.5193,VALID,29,VALID,0,
2011-07-28, 01:12:04,VALID,1004.05,VALID,0,INVALID,163.655,VALID,0,VALID,24.4998,VALID,29,VALID,0,
2011-07-28, 01:13:04,VALID,1004.08,VALID,0,INVALID,163.762,VALID,0,VALID,24.4804,VALID,29,VALID,0,
2011-07-28, 01:14:04,VALID,1004.08,VALID,0,INVALID,163.723,VALID,0,VALID,24.4822,VALID,29,VALID,0,
2011-07-28, 01:15:04,VALID,1004.07,VALID,0,INVALID,163.762,VALID,0,VALID,24.4414,VALID,29,VALID,0,
2011-07-28, 01:16:04,VALID,1004.06,VALID,0,INVALID,163.716,VALID,0,VALID,24.4609,VALID,29,VALID,0,
2011-07-28, 01:17:04,VALID,1004.04,VALID,0,INVALID,163.731,VALID,0,VALID,24.4628,VALID,29,VALID,0,
2011-07-28, 01:18:04,VALID,1004.05,VALID,0,INVALID,163.792,VALID,0,VALID,24.4609,VALID,29,VALID,0,
2011-07-28, 01:19:04,VALID,1004.03,VALID,0,INVALID,163.746,VALID,0,VALID,24.4414,VALID,29,VALID,0,
2011-07-28, 01:20:04,VALID,1004.03,VALID,0,INVALID,163.685,VALID,0,VALID,24.4414,VALID,29,VALID,0,
2011-07-28, 01:21:04,VALID,1004.05,VALID,0,INVALID,163.67,VALID,0,VALID,24.4201,VALID,29,VALID,0,
2011-07-28, 01:22:04,VALID,1004.05,VALID,0,INVALID,163.716,VALID,0,VALID,24.4414,VALID,29,VALID,0,
2011-07-28, 01:23:04,VALID,1004.05,VALID,0,INVALID,163.701,VALID,0,VALID,24.4414,VALID,29,VALID,0,
2011-07-28, 01:24:04,VALID,1004.07,VALID,0,INVALID,163.716,VALID,0,VALID,24.4414,VALID,29,VALID,0,
2011-07-28, 01:25:04,VALID,1004.08,VALID,0,INVALID,163.708,VALID,0,VALID,24.422,VALID,29,VALID,0,
2011-07-28, 01:26:04,VALID,1004.05,VALID,0,INVALID,163.731,VALID,0,VALID,24.422,VALID,29,VALID,0,
2011-07-28, 01:27:04,VALID,1004.05,VALID,0,INVALID,163.701,VALID,0,VALID,24.422,VALID,29,VALID,0,
2011-07-28, 01:28:04,VALID,1004.02,VALID,0,INVALID,163.716,VALID,0,VALID,24.422,VALID,29,VALID,0,
2011-07-28, 01:29:04,VALID,1003.98,VALID,0,INVALID,163.716,VALID,0,VALID,24.422,VALID,29,VALID,0,
2011-07-28, 01:30:04,VALID,1004.01,VALID,0,INVALID,163.716,VALID,0.100563,VALID,24.422,VALID,29,VALID,0,
2011-07-28, 01:31:04,VALID,1004,VALID,0,INVALID,163.701,VALID,0,VALID,24.3812,VALID,29,VALID,0,
2011-07-28, 01:32:04,VALID,1004,VALID,0,INVALID,163.723,VALID,0.100563,VALID,24.4201,VALID,29,VALID,0,
2011-07-28, 01:33:04,VALID,1004.02,VALID,0,INVALID,163.739,VALID,0,VALID,24.4006,VALID,29,VALID,0,
2011-07-28, 01:34:04,VALID,1004.02,VALID,0,INVALID,163.739,VALID,0,VALID,24.4414,VALID,29,VALID,0,
2011-07-28, 01:35:04,VALID,1004,VALID,0,INVALID,163.731,VALID,0,VALID,24.4414,VALID,29,VALID,0,
2011-07-28, 01:36:04,VALID,1004.01,VALID,0,INVALID,163.777,VALID,0,VALID,24.4414,VALID,29,VALID,0,
2011-07-28, 01:37:04,VALID,1004,VALID,0,INVALID,163.754,VALID,0,VALID,24.4804,VALID,29,VALID,0,
2011-07-28, 01:38:04,VALID,1003.97,VALID,0,INVALID,163.723,VALID,0,VALID,24.4609,VALID,29,VALID,0,
2011-07-28, 01:39:04,VALID,1003.96,VALID,0,INVALID,163.693,VALID,0.100563,VALID,24.4396,VALID,29,VALID,0,
2011-07-28, 01:40:04,VALID,1003.94,VALID,0,INVALID,163.731,VALID,0,VALID,24.4609,VALID,29,VALID,0,
2011-07-28, 01:41:04,VALID,1003.94,VALID,0,INVALID,163.716,VALID,0,VALID,24.4414,VALID,29,VALID,0,
2011-07-28, 01:42:04,VALID,1003.94,VALID,0,INVALID,163.708,VALID,0,VALID,24.3812,VALID,29,VALID,0,
2011-07-28, 01:43:04,VALID,1003.94,VALID,0,INVALID,163.746,VALID,0.100563,VALID,24.383,VALID,29,VALID,0,
2011-07-28, 01:44:04,VALID,1003.96,VALID,0,INVALID,163.731,VALID,0.100563,VALID,24.3636,VALID,29,VALID,0,
2011-07-28, 01:45:04,VALID,1003.94,VALID,0,INVALID,163.701,VALID,0,VALID,24.3246,VALID,29,VALID,0,
2011-07-28, 01:46:04,VALID,1003.93,VALID,0,INVALID,163.792,VALID,0.100563,VALID,24.3052,VALID,29,VALID,0,
2011-07-28, 01:47:04,VALID,1003.93,VALID,0,INVALID,163.708,VALID,0.100563,VALID,24.2662,VALID,29,VALID,0,
2011-07-28, 01:48:04,VALID,1003.94,VALID,0,INVALID,163.739,VALID,0,VALID,24.2468,VALID,29,VALID,0,
2011-07-28, 01:49:04,VALID,1003.92,VALID,0,INVALID,163.739,VALID,0,VALID,24.2273,VALID,29,VALID,0,
2011-07-28, 01:50:04,VALID,1003.89,VALID,0,INVALID,163.754,VALID,0.100563,VALID,24.2078,VALID,29,VALID,0,
2011-07-28, 01:51:04,VALID,1003.86,VALID,0,INVALID,163.739,VALID,0,VALID,24.2078,VALID,29,VALID,0,
2011-07-28, 01:52:04,VALID,1003.82,VALID,0,INVALID,163.723,VALID,0,VALID,24.206,VALID,30,VALID,0,
2011-07-28, 01:53:04,VALID,1003.81,VALID,0,INVALID,163.746,VALID,0,VALID,24.2468,VALID,45,VALID,0,
2011-07-28, 01:54:04,VALID,1003.81,VALID,0,INVALID,163.731,VALID,0,VALID,24.2255,VALID,55,VALID,0,
2011-07-28, 01:55:04,VALID,1003.79,VALID,0,INVALID,163.731,VALID,0,VALID,24.2273,VALID,65,VALID,0,
2011-07-28, 01:56:04,VALID,1003.76,VALID,0,INVALID,163.708,VALID,0.100563,VALID,24.2468,VALID,66,VALID,0,
2011-07-28, 01:57:04,VALID,1003.79,VALID,0,INVALID,163.731,VALID,0,VALID,24.2468,VALID,66,VALID,0,
2011-07-28, 01:58:04,VALID,1003.76,VALID,0,INVALID,163.739,VALID,0,VALID,24.2662,VALID,66,VALID,0,
2011-07-28, 01:59:04,VALID,1003.77,VALID,0,INVALID,163.708,VALID,0.100563,VALID,24.2449,VALID,66,VALID,0,
2011-07-28, 02:00:04,VALID,1003.78,VALID,0,INVALID,163.731,VALID,0,VALID,24.206,VALID,66,VALID,0,
2011-07-28, 02:01:04,VALID,1003.78,VALID,0,INVALID,163.746,VALID,0,VALID,24.1671,VALID,66,VALID,0,
2011-07-28, 02:02:04,VALID,1003.75,VALID,0,INVALID,163.739,VALID,0,VALID,24.1689,VALID,65,VALID,0,
2011-07-28, 02:03:04,VALID,1003.74,VALID,0,INVALID,163.8,VALID,0,VALID,24.1884,VALID,52,VALID,0,
2011-07-28, 02:04:04,VALID,1003.72,VALID,0,INVALID,163.701,VALID,0,VALID,24.1494,VALID,52,VALID,0,
2011-07-28, 02:05:04,VALID,1003.72,VALID,0,INVALID,163.746,VALID,0,VALID,24.1105,VALID,52,VALID,0,
2011-07-28, 02:06:04,VALID,1003.69,VALID,0,INVALID,163.723,VALID,0,VALID,24.0892,VALID,52,VALID,0,
2011-07-28, 02:07:04,VALID,1003.71,VALID,0,INVALID,163.746,VALID,0.100563,VALID,24.13,VALID,52,VALID,0,
2011-07-28, 02:08:04,VALID,1003.69,VALID,0,INVALID,163.769,VALID,0.100563,VALID,24.1105,VALID,52,VALID,0,
2011-07-28, 02:09:04,VALID,1003.7,VALID,0,INVALID,163.739,VALID,0,VALID,24.13,VALID,52,VALID,0,
2011-07-28, 02:10:04,VALID,1003.71,VALID,0,INVALID,163.739,VALID,0.100563,VALID,24.1494,VALID,52,VALID,0,
2011-07-28, 02:11:04,VALID,1003.68,VALID,0,INVALID,163.746,VALID,0,VALID,24.1707,VALID,52,VALID,0,
2011-07-28, 02:12:04,VALID,1003.69,VALID,0,INVALID,163.746,VALID,0,VALID,24.1281,VALID,52,VALID,0,
2011-07-28, 02:13:04,VALID,1003.7,VALID,0,INVALID,163.723,VALID,0,VALID,24.1281,VALID,52,VALID,0,
2011-07-28, 02:14:04,VALID,1003.67,VALID,0,INVALID,163.769,VALID,0,VALID,24.1689,VALID,52,VALID,0,
2011-07-28, 02:15:04,VALID,1003.7,VALID,0,INVALID,163.731,VALID,0,VALID,24.1476,VALID,52,VALID,0,
2011-07-28, 02:16:04,VALID,1003.71,VALID,0,INVALID,163.723,VALID,0,VALID,24.1494,VALID,52,VALID,0,
2011-07-28, 02:17:04,VALID,1003.71,VALID,0,INVALID,163.723,VALID,0,VALID,24.13,VALID,52,VALID,0,
2011-07-28, 02:18:04,VALID,1003.69,VALID,0,INVALID,163.754,VALID,0.100563,VALID,24.0892,VALID,52,VALID,0,
2011-07-28, 02:19:04,VALID,1003.72,VALID,0,INVALID,163.731,VALID,0,VALID,24.13,VALID,52,VALID,0,
2011-07-28, 02:20:04,VALID,1003.72,VALID,0,INVALID,163.708,VALID,0,VALID,24.1087,VALID,52,VALID,0,
2011-07-28, 02:21:04,VALID,1003.71,VALID,0,INVALID,163.739,VALID,0,VALID,24.091,VALID,52,VALID,0,
2011-07-28, 02:22:04,VALID,1003.72,VALID,0,INVALID,163.739,VALID,0,VALID,24.091,VALID,52,VALID,0,
2011-07-28, 02:23:04,VALID,1003.74,VALID,0,INVALID,163.739,VALID,0,VALID,24.1105,VALID,52,VALID,0,
2011-07-28, 02:24:04,VALID,1003.74,VALID,0,INVALID,163.746,VALID,0.100563,VALID,24.1087,VALID,52,VALID,0,
2011-07-28, 02:25:04,VALID,1003.77,VALID,0,INVALID,163.723,VALID,0,VALID,24.1087,VALID,52,VALID,0,
2011-07-28, 02:26:04,VALID,1003.79,VALID,0,INVALID,163.716,VALID,0.100563,VALID,24.1087,VALID,52,VALID,0,
2011-07-28, 02:27:04,VALID,1003.77,VALID,0,INVALID,163.823,VALID,0,VALID,24.1281,VALID,52,VALID,0,
2011-07-28, 02:28:04,VALID,1003.73,VALID,0,INVALID,163.723,VALID,0.100563,VALID,24.1281,VALID,52,VALID,0,
2011-07-28, 02:29:04,VALID,1003.7,VALID,0,INVALID,163.723,VALID,0,VALID,24.1476,VALID,52,VALID,0,
2011-07-28, 02:30:04,VALID,1003.66,VALID,0,INVALID,163.762,VALID,0,VALID,24.1689,VALID,52,VALID,0,
2011-07-28, 02:31:04,VALID,1003.63,VALID,0,INVALID,163.754,VALID,0,VALID,24.1087,VALID,52,VALID,0,
2011-07-28, 02:32:04,VALID,1003.58,VALID,0,INVALID,163.746,VALID,0,VALID,24.1087,VALID,52,VALID,0,
2011-07-28, 02:33:04,VALID,1003.61,VALID,0,INVALID,163.754,VALID,0,VALID,24.091,VALID,52,VALID,0,
2011-07-28, 02:34:04,VALID,1003.61,VALID,0,INVALID,163.723,VALID,0,VALID,24.0716,VALID,52,VALID,0,
2011-07-28, 02:35:04,VALID,1003.6,VALID,0,INVALID,163.731,VALID,0.100563,VALID,24.0697,VALID,52,VALID,0,
2011-07-28, 02:36:04,VALID,1003.6,VALID,0,INVALID,163.792,VALID,0,VALID,24.0716,VALID,52,VALID,0,
2011-07-28, 02:37:04,VALID,1003.61,VALID,0,INVALID,163.815,VALID,0,VALID,24.091,VALID,52,VALID,0,
2011-07-28, 02:38:04,VALID,1003.58,VALID,0,INVALID,163.792,VALID,0,VALID,24.0503,VALID,52,VALID,0,
2011-07-28, 02:39:04,VALID,1003.56,VALID,0,INVALID,163.769,VALID,0,VALID,24.0521,VALID,52,VALID,0,
2011-07-28, 02:40:04,VALID,1003.55,VALID,0,INVALID,163.8,VALID,0,VALID,23.9919,VALID,52,VALID,0,
2011-07-28, 02:41:04,VALID,1003.49,VALID,0,INVALID,163.762,VALID,0,VALID,24.0326,VALID,52,VALID,0,
2011-07-28, 02:42:04,VALID,1003.48,VALID,0,INVALID,163.823,VALID,0.100563,VALID,24.0326,VALID,52,VALID,0,
2011-07-28, 02:43:04,VALID,1003.51,VALID,0,INVALID,163.762,VALID,0,VALID,24.0114,VALID,52,VALID,0,
2011-07-28, 02:44:04,VALID,1003.48,VALID,0,INVALID,163.754,VALID,0,VALID,24.0326,VALID,52,VALID,0,
2011-07-28, 02:45:04,VALID,1003.5,VALID,0,INVALID,163.777,VALID,0,VALID,24.0308,VALID,52,VALID,0,
2011-07-28, 02:46:04,VALID,1003.51,VALID,0,INVALID,163.769,VALID,0,VALID,24.0326,VALID,52,VALID,0,
2011-07-28, 02:47:04,VALID,1003.52,VALID,0,INVALID,163.762,VALID,0,VALID,24.0308,VALID,52,VALID,0,
2011-07-28, 02:48:04,VALID,1003.5,VALID,0,INVALID,163.769,VALID,0.100563,VALID,24.0503,VALID,51,VALID,0,
2011-07-28, 02:49:04,VALID,1003.49,VALID,0,INVALID,163.754,VALID,0.100563,VALID,24.0114,VALID,33,VALID,0,
2011-07-28, 02:50:04,VALID,1003.47,VALID,0,INVALID,163.723,VALID,0.100563,VALID,24.0132,VALID,33,VALID,0,
2011-07-28, 02:51:04,VALID,1003.45,VALID,0,INVALID,163.769,VALID,0.100563,VALID,23.9724,VALID,33,VALID,0,
2011-07-28, 02:52:04,VALID,1003.44,VALID,0,INVALID,163.769,VALID,0.100563,VALID,23.9122,VALID,33,VALID,0,
2011-07-28, 02:53:04,VALID,1003.44,VALID,0,INVALID,163.762,VALID,0.100563,VALID,23.953,VALID,33,VALID,0,
2011-07-28, 02:54:04,VALID,1003.42,VALID,0,INVALID,163.815,VALID,0.100563,VALID,23.9724,VALID,33,VALID,0,
2011-07-28, 02:55:04,VALID,1003.44,VALID,0,INVALID,163.807,VALID,0.100563,VALID,23.9919,VALID,33,VALID,0,
2011-07-28, 02:56:04,VALID,1003.43,VALID,0,INVALID,163.739,VALID,0,VALID,24.0308,VALID,33,VALID,0,
2011-07-28, 02:57:04,VALID,1003.43,VALID,0,INVALID,163.716,VALID,0.100563,VALID,24.0716,VALID,33,VALID,0,
2011-07-28, 02:58:04,VALID,1003.45,VALID,0,INVALID,163.746,VALID,0.100563,VALID,24.0503,VALID,33,VALID,0,
2011-07-28, 02:59:04,VALID,1003.47,VALID,0,INVALID,163.769,VALID,0,VALID,24.0503,VALID,32,VALID,0,
2011-07-28, 03:00:04,VALID,1003.46,VALID,0,INVALID,163.746,VALID,0,VALID,24.0521,VALID,32,VALID,0,
2011-07-28, 03:01:04,VALID,1003.42,VALID,0,INVALID,163.731,VALID,0.100563,VALID,23.9919,VALID,32,VALID,0,
2011-07-28, 03:02:04,VALID,1003.43,VALID,0,INVALID,163.754,VALID,0,VALID,23.9724,VALID,32,VALID,0,
2011-07-28, 03:03:04,VALID,1003.4,VALID,0,INVALID,163.762,VALID,0.100563,VALID,23.953,VALID,32,VALID,0,
2011-07-28, 03:04:04,VALID,1003.37,VALID,0,INVALID,163.784,VALID,0,VALID,23.9548,VALID,32,VALID,0,
2011-07-28, 03:05:04,VALID,1003.35,VALID,0,INVALID,163.739,VALID,0.100563,VALID,23.8946,VALID,32,VALID,0,
2011-07-28, 03:06:04,VALID,1003.36,VALID,0,INVALID,163.762,VALID,0.100563,VALID,23.8751,VALID,32,VALID,0,
2011-07-28, 03:07:04,VALID,1003.33,VALID,0,INVALID,163.769,VALID,0,VALID,23.8964,VALID,32,VALID,0,
2011-07-28, 03:08:04,VALID,1003.34,VALID,0,INVALID,163.762,VALID,0.100563,VALID,23.8751,VALID,32,VALID,0,
2011-07-28, 03:09:04,VALID,1003.35,VALID,0,INVALID,163.746,VALID,0.100563,VALID,23.8946,VALID,32,VALID,0,
2011-07-28, 03:10:04,VALID,1003.38,VALID,0,INVALID,163.754,VALID,0.100563,VALID,23.9159,VALID,32,VALID,0,
2011-07-28, 03:11:04,VALID,1003.38,VALID,0,INVALID,163.731,VALID,0,VALID,23.914,VALID,32,VALID,0,
2011-07-28, 03:12:04,VALID,1003.39,VALID,0,INVALID,163.754,VALID,0,VALID,23.9335,VALID,32,VALID,0,
2011-07-28, 03:13:04,VALID,1003.38,VALID,0,INVALID,163.762,VALID,0,VALID,23.9548,VALID,32,VALID,0,
2011-07-28, 03:14:04,VALID,1003.36,VALID,0,INVALID,163.769,VALID,0,VALID,23.9353,VALID,32,VALID,0,
2011-07-28, 03:15:04,VALID,1003.36,VALID,0,INVALID,163.762,VALID,0.100563,VALID,23.9335,VALID,32,VALID,0,
2011-07-28, 03:16:04,VALID,1003.35,VALID,0,INVALID,163.777,VALID,0,VALID,23.9548,VALID,32,VALID,0,
2011-07-28, 03:17:04,VALID,1003.35,VALID,0,INVALID,163.754,VALID,0,VALID,23.9335,VALID,32,VALID,0,
2011-07-28, 03:18:04,VALID,1003.34,VALID,0,INVALID,163.746,VALID,0,VALID,23.9335,VALID,32,VALID,0,
2011-07-28, 03:19:04,VALID,1003.33,VALID,0,INVALID,163.8,VALID,0,VALID,23.953,VALID,32,VALID,0,
2011-07-28, 03:20:04,VALID,1003.33,VALID,0,INVALID,163.823,VALID,0.100563,VALID,23.9742,VALID,32,VALID,0,
2011-07-28, 03:21:04,VALID,1003.32,VALID,0,INVALID,163.815,VALID,0,VALID,24.0132,VALID,32,VALID,0,
2011-07-28, 03:22:04,VALID,1003.33,VALID,0,INVALID,163.815,VALID,0,VALID,24.0326,VALID,32,VALID,0,
2011-07-28, 03:23:04,VALID,1003.34,VALID,0,INVALID,163.739,VALID,0,VALID,24.0114,VALID,32,VALID,0,
2011-07-28, 03:24:04,VALID,1003.34,VALID,0,INVALID,163.762,VALID,0,VALID,24.0503,VALID,32,VALID,0,
2011-07-28, 03:25:04,VALID,1003.33,VALID,0,INVALID,163.739,VALID,0,VALID,24.091,VALID,32,VALID,0,
2011-07-28, 03:26:04,VALID,1003.36,VALID,0,INVALID,163.739,VALID,0,VALID,24.0697,VALID,32,VALID,0,
2011-07-28, 03:27:04,VALID,1003.38,VALID,0,INVALID,163.762,VALID,0,VALID,24.1105,VALID,32,VALID,0,
2011-07-28, 03:28:04,VALID,1003.36,VALID,0,INVALID,163.739,VALID,0,VALID,24.0892,VALID,32,VALID,0,
2011-07-28, 03:29:04,VALID,1003.37,VALID,0,INVALID,163.754,VALID,0.100563,VALID,24.1105,VALID,32,VALID,0,
2011-07-28, 03:30:04,VALID,1003.36,VALID,0,INVALID,163.739,VALID,0,VALID,24.13,VALID,32,VALID,0,
2011-07-28, 03:31:04,VALID,1003.35,VALID,0,INVALID,163.731,VALID,0,VALID,24.1689,VALID,32,VALID,0,
2011-07-28, 03:32:04,VALID,1003.36,VALID,0,INVALID,163.754,VALID,0.100563,VALID,24.1884,VALID,32,VALID,0,
2011-07-28, 03:33:04,VALID,1003.33,VALID,0,INVALID,163.708,VALID,0,VALID,24.1884,VALID,32,VALID,0,
2011-07-28, 03:34:04,VALID,1003.35,VALID,0,INVALID,163.746,VALID,0,VALID,24.2681,VALID,32,VALID,0,
2011-07-28, 03:35:04,VALID,1003.34,VALID,0,INVALID,163.731,VALID,0,VALID,24.2449,VALID,32,VALID,0,
2011-07-28, 03:36:04,VALID,1003.37,VALID,0,INVALID,163.723,VALID,0.100563,VALID,24.3052,VALID,32,VALID,0,
2011-07-28, 03:37:04,VALID,1003.34,VALID,0,INVALID,163.762,VALID,0.100563,VALID,24.2857,VALID,32,VALID,0,
2011-07-28, 03:38:04,VALID,1003.37,VALID,0,INVALID,163.685,VALID,0,VALID,24.2449,VALID,32,VALID,0,
2011-07-28, 03:39:04,VALID,1003.33,VALID,0,INVALID,163.769,VALID,0,VALID,24.2857,VALID,32,VALID,0,
2011-07-28, 03:40:04,VALID,1003.33,VALID,0,INVALID,163.739,VALID,0,VALID,24.2644,VALID,32,VALID,0,
2011-07-28, 03:41:04,VALID,1003.34,VALID,0,INVALID,163.746,VALID,0,VALID,24.2857,VALID,32,VALID,0,
2011-07-28, 03:42:04,VALID,1003.34,VALID,0,INVALID,163.739,VALID,0,VALID,24.2644,VALID,32,VALID,0,
2011-07-28, 03:43:04,VALID,1003.36,VALID,0,INVALID,163.731,VALID,0,VALID,24.2662,VALID,32,VALID,0,
2011-07-28, 03:44:04,VALID,1003.38,VALID,0,INVALID,163.701,VALID,0,VALID,24.2662,VALID,32,VALID,0,
2011-07-28, 03:45:04,VALID,1003.35,VALID,0,INVALID,163.731,VALID,0,VALID,24.2449,VALID,32,VALID,0,
2011-07-28, 03:46:04,VALID,1003.37,VALID,0,INVALID,163.746,VALID,0,VALID,24.2644,VALID,32,VALID,0,
2011-07-28, 03:47:04,VALID,1003.38,VALID,0,INVALID,163.731,VALID,0,VALID,24.2857,VALID,32,VALID,0,
2011-07-28, 03:48:04,VALID,1003.4,VALID,0,INVALID,163.777,VALID,0,VALID,24.2839,VALID,32,VALID,0,
2011-07-28, 03:49:04,VALID,1003.39,VALID,0,INVALID,163.754,VALID,0,VALID,24.2839,VALID,32,VALID,0,
2011-07-28, 03:50:04,VALID,1003.38,VALID,0,INVALID,163.708,VALID,0,VALID,24.3052,VALID,32,VALID,0,
2011-07-28, 03:51:04,VALID,1003.38,VALID,0,INVALID,163.723,VALID,0,VALID,24.2857,VALID,32,VALID,0,
2011-07-28, 03:52:04,VALID,1003.4,VALID,0,INVALID,163.723,VALID,0,VALID,24.3052,VALID,32,VALID,0,
2011-07-28, 03:53:04,VALID,1003.37,VALID,0,INVALID,163.701,VALID,0,VALID,24.307,VALID,32,VALID,0,